#timestamp,LO_Frequency,Hit,StdDev 
1501894815.3,286046999.0,N,1.3
1501894835.1,286046997.0,N,1.4
1501894855.9,286046996.7,N,1.4
1501894875.7,286046999.3,N,1.4
1501894895.5,286046998.9,N,1.4
1501894915.4,286046999.1,N,1.3
1501894935.2,286046996.5,N,1.4
1501894955.1,286046997.4,N,1.4
1501894956.0,286046997.4,N,1.4
1501894975.8,286046996.7,N,1.4
1501894995.6,286046998.0,N,1.4
1501895015.5,286046997.8,N,1.3
1501895035.3,286046996.7,N,1.4
1501895055.2,286046996.6,N,1.4
1501895075.0,286046997.1,N,1.4
1501895075.9,286046997.1,N,1.4
1501895095.7,286046996.6,N,1.4
1501895115.6,286046996.9,N,1.3
1501895135.4,286046997.8,N,1.2
1501895155.3,286046997.2,N,1.2
1501895175.1,286046997.2,N,1.0
1501895195.9,286046997.1,N,1.0
1501895215.7,286046995.0,Y,0.0
1501895235.5,286046998.4,P,0.3
1501895255.4,286047000.8,N,1.3
1501895275.2,286046998.3,N,1.2
1501895295.1,286046998.9,N,1.1
1501895296.0,286046998.9,N,1.0
1501895315.8,286046998.6,N,0.9
1501895335.6,286046998.9,N,0.8
1501895355.5,286046998.9,N,0.8
1501895375.3,286046997.7,N,0.8
1501895395.2,286046996.5,Y,0.0
1501895415.9,286046999.0,P,0.1
1501895435.7,286046999.0,P,0.1
1501895455.6,286046998.2,P,0.3
1501895475.4,286047001.0,N,1.0
1501895495.3,286047001.0,N,1.1
1501895515.1,286047001.2,N,1.2
1501895516.0,286047001.2,N,1.2
1501895535.8,286046998.7,N,1.2
1501895555.7,286046998.7,N,1.2
1501895575.5,286046998.8,N,1.2
1501895595.4,286046999.3,N,1.1
1501895615.2,286046999.3,N,1.1
1501895635.0,286046998.4,N,1.1
1501895635.9,286046998.4,N,1.1
1501895655.8,286047001.2,N,1.1
1501895675.6,286046998.3,N,1.1
1501895695.5,286046999.9,N,1.1
1501895715.3,286047000.7,N,1.1
1501895735.1,286046998.5,N,1.1
1501895755.9,286047000.8,N,1.1
1501895775.7,286046998.9,N,1.1
1501895795.6,286046999.2,N,1.1
1501895815.4,286047001.1,N,1.1
1501895835.2,286046998.9,N,1.1
1501895855.1,286046998.4,N,1.1
1501895856.0,286046998.4,N,1.1
1501895875.8,286046999.3,N,1.1
1501895895.7,286046999.2,N,1.0
1501895915.5,286046996.6,Y,0.0
1501895935.3,286046998.2,P,0.6
1501895955.2,286047000.7,N,1.0
1501895975.0,286046998.2,N,1.0
1501895975.9,286046998.2,N,1.0
1501895995.8,286046998.6,N,0.9
1501896015.6,286046998.1,N,0.9
1501896035.4,286046998.2,N,0.9
1501896055.3,286046998.1,N,0.8
1501896075.1,286046998.3,N,0.8
1501896095.9,286047000.5,N,0.9
1501896115.7,286047000.9,N,1.1
1501896135.5,286047000.5,N,1.1
1501896155.4,286047000.0,N,1.1
1501896175.2,286046999.9,N,1.1
1501896195.1,286047002.4,N,1.3
1501896196.0,286047002.4,N,1.4
1501896215.8,286047002.0,N,1.5
1501896235.6,286047002.2,N,1.6
1501896255.5,286047001.9,N,1.6
1501896275.3,286047001.3,N,1.6
1501896295.2,286047001.8,N,1.6
1501896315.9,286047004.4,N,1.8
1501896335.7,286047001.3,N,1.8
1501896355.6,286047004.3,N,1.9
1501896375.4,286047003.2,N,1.9
1501896395.3,286047003.8,N,2.0
1501896415.1,286047003.6,N,2.0
1501896416.0,286047003.6,N,2.1
1501896435.8,286047003.9,N,2.1
1501896455.7,286047003.4,N,2.1
1501896475.5,286047003.0,N,2.1
1501896495.3,286047003.5,N,2.1
1501896515.2,286047003.1,N,2.0
1501896535.0,286047003.4,N,2.0
1501896535.9,286047003.4,N,1.9
1501896555.8,286047003.2,N,1.8
1501896575.6,286047005.5,Y,0.0
1501896595.5,286047001.9,P,0.1
1501896615.3,286047001.3,P,0.3
1501896635.1,286047003.8,P,0.9
1501896655.9,286047001.8,N,0.9
1501896675.7,286047004.4,Y,0.0
1501896695.5,286047000.4,P,0.9
1501896715.4,286047000.0,N,0.9
1501896735.2,286047000.3,N,0.9
1501896755.1,286047000.0,N,0.8
1501896756.0,286047000.0,N,0.8
1501896775.8,286046999.7,N,0.8
1501896795.7,286047002.5,Y,0.0
1501896815.5,286047000.1,P,0.1
1501896835.3,286047000.7,P,0.2
1501896855.2,286047002.0,P,0.7
1501896875.0,286047001.7,N,0.7
1501896875.9,286047001.7,N,0.7
1501896895.8,286047003.3,Y,0.0
1501896915.6,286047004.3,P,1.6
1501896935.4,286047001.9,N,1.4
1501896955.3,286047002.0,N,1.2
1501896975.1,286047001.9,N,1.1
1501896995.9,286047002.0,N,1.0
1501897015.7,286047001.5,N,0.9
1501897035.5,286047002.2,N,0.9
1501897055.4,286047002.0,N,0.8
1501897075.2,286047004.3,Y,0.0
1501897095.0,286047000.9,P,0.6
1501897096.0,286047000.9,N,0.6
1501897115.8,286047000.4,N,0.6
1501897135.6,286047000.0,N,0.7
1501897155.5,286047000.1,N,0.7
1501897175.3,286047000.4,N,0.7
1501897195.1,286047002.7,Y,0.0
1501897215.9,286047000.9,P,0.1
1501897235.7,286047000.8,P,0.1
1501897255.6,286046999.7,P,0.5
1501897275.4,286047002.6,Y,0.0
1501897295.2,286047000.0,P,0.3
1501897315.1,286046999.7,N,0.3
1501897316.0,286046999.7,N,0.3
1501897335.8,286047001.0,N,0.5
1501897355.7,286046999.8,N,0.5
1501897375.5,286047002.3,Y,0.0
1501897395.3,286047002.6,P,1.2
1501897415.2,286047002.7,N,1.2
1501897435.0,286046999.9,N,1.3
1501897435.9,286046999.9,N,1.3
1501897455.8,286047001.9,N,1.2
1501897475.6,286047002.6,N,1.3
1501897495.4,286046999.8,N,1.3
1501897515.3,286047002.4,N,1.3
1501897535.1,286047001.6,N,1.2
1501897555.9,286047002.2,N,1.2
1501897575.7,286047002.4,N,1.2
1501897595.5,286047002.6,N,1.1
1501897615.4,286047002.4,N,1.1
1501897635.2,286047004.2,Y,0.0
1501897655.1,286047000.1,P,0.8
1501897656.0,286047000.1,N,0.7
1501897675.8,286046998.1,N,1.3
1501897695.6,286047001.1,N,1.2
1501897715.5,286047000.7,N,1.1
1501897735.3,286047002.2,N,1.2
1501897755.2,286047002.3,N,1.3
1501897775.9,286047000.4,N,1.2
1501897795.7,286047000.5,N,1.2
1501897815.6,286047002.5,N,1.2
1501897835.4,286046999.7,N,1.2
1501897855.3,286047000.3,N,1.2
1501897875.1,286047000.4,N,1.1
1501897876.0,286047000.4,N,1.1
1501897895.8,286046999.9,N,1.1
1501897915.7,286047001.0,N,1.1
1501897935.5,286046998.2,N,1.2
1501897955.4,286046999.8,N,1.1
1501897975.2,286047002.6,N,1.2
1501897995.0,286046999.9,N,1.2
1501897995.9,286046999.9,N,1.2
1501898015.8,286047000.4,N,1.1
1501898035.6,286047000.7,N,1.1
1501898055.5,286047000.7,N,1.1
1501898075.3,286047000.9,N,1.1
1501898095.1,286046998.1,N,1.2
1501898115.9,286046998.4,N,1.2
1501898135.7,286047001.1,N,1.2
1501898155.5,286047001.0,N,1.2
1501898175.4,286047000.8,N,1.2
1501898195.2,286047000.3,N,1.1
1501898215.1,286046999.8,N,1.2
1501898216.0,286046999.8,N,1.1
1501898235.8,286046999.9,N,1.1
1501898255.6,286047000.3,N,1.1
1501898275.5,286047000.0,N,1.0
1501898295.3,286047000.1,N,1.0
1501898315.2,286047000.6,N,1.0
1501898335.9,286047001.7,N,1.0
1501898355.7,286047003.7,Y,0.0
1501898375.6,286047002.7,P,1.2
1501898395.4,286047002.3,N,1.0
